[[{"header":{"parameterUnit":"m.s-1","parameterCategory":1,"la1":30.2991,"la2":30.254,"lo1":-89.0895,"lo2":-89.0444,"dy":0.0017,"dx":0.0017,"nx":28,"ny":28,"refTime":"2023-10-13T09:00:00:Z","depth":0,"parameterNumber":2,"parameterNumberName":"U-component_of_WINDS"},"data":[0,0,0,0,0,0,0,0,0,0,0,0,0,0,0,0,0,0,0,0,0,0,0,0,0,0,0,0,0,0,0,0,0,0,0,0,0,0,0,0,0,0,0,0,0,0,0,0,0,0,0,0,0,0,0,0,0,0,4.3964,4.3965,0,4.4008,4.4009,4.4009,4.4,4.4,4.3999,4.3998,4.4042,4.4044,4.4046,0,0,0,0,0,0,0,0,0,0,0,0,0,4.3875,4.3877,4.3964,4.3965,4.3965,4.4008,4.4009,4.4009,4.4001,4.4,4.3999,4.3998,4.4041,4.4044,4.4046,0,0,0,0,0,0,0,0,0,0,0,0,0,4.3916,4.3877,4.3964,4.3966,4.3967,4.4008,4.4009,4.4009,4.4001,4.4,4.3998,4.3997,4.4041,4.4043,4.4046,4.4088,0,0,4.4055,4.4056,0,0,0,0,0,0,0,0,4.3913,4.3919,4.3965,4.3966,4.3967,4.3998,4.3993,4.4036,4.4001,4.3988,4.3998,4.3997,4.4028,4.4032,4.4043,4.409,4.4091,4.4055,4.4057,4.4058,4.4059,0,0,0,0,0,0,0,4.3911,4.3917,4.3982,4.3966,4.3967,4.3966,4.397,4.4001,4.4014,4.3989,4.3988,4.3994,4.4028,4.404,4.4044,4.4092,4.4055,4.4058,4.4059,4.4061,4.4179,4.418,0,0,0,0,0,0,4.3907,4.3915,4.398,4.3983,4.3937,4.3968,4.3973,4.3989,4.4014,4.4016,4.3995,4.3993,4.4036,4.404,4.4045,4.4097,4.4058,4.4061,4.4062,4.4178,4.4179,4.4181,0,0,0,0,0,0,4.3905,4.3913,4.3978,4.3949,4.3957,4.3971,4.3989,4.399,4.4002,4.4018,4.402,4.4004,4.4035,4.4041,4.4078,4.4099,4.4062,4.4065,4.4176,4.4178,4.418,4.4201,0,0,0,0,0,0,4.3902,4.3912,4.3927,4.3949,4.3959,4.401,4.399,4.3992,4.4007,4.4006,4.4028,4.403,4.4034,4.4074,4.4081,4.4102,4.4067,4.4174,4.4177,4.4179,4.4198,4.4204,4.4208,0,0,0,0,0,4.3899,4.3931,4.3928,4.3936,4.3978,4.4011,4.4017,4.4021,4.4009,4.4025,4.4036,4.4029,4.4096,4.4078,4.4085,4.4108,4.4173,4.4176,4.4179,4.4196,4.4203,4.4208,0,0,0,0,0,0,4.3909,4.3933,4.3931,4.397,4.3989,4.401,4.403,4.4027,4.4049,4.4047,4.4052,4.4057,4.4095,4.4105,4.4085,4.4151,4.4133,4.4137,4.4143,4.4149,4.4154,4.415,4.4069,0,0,0,0,0,4.3917,4.3942,4.3961,4.3994,4.4003,4.4015,4.403,4.4032,4.4051,4.4059,4.4072,4.4092,4.4117,4.4134,4.4157,4.42,4.4206,4.422,4.4225,4.4228,4.4233,4.4259,4.4266,4.4192,4.4191,4.4191,0,0,4.3931,4.3947,4.3962,4.3996,4.4011,4.4038,4.4022,4.4049,4.407,4.4063,4.4099,4.411,4.4132,4.4173,4.4192,4.4183,4.4255,4.4233,4.4235,4.4238,4.4263,4.427,4.4276,4.4194,4.4193,4.4193,0,0,4.3971,4.3985,4.4015,4.4031,4.4054,4.4062,4.407,4.4092,4.4099,4.4136,4.4133,4.4157,4.42,4.4217,4.4231,4.4281,4.4277,4.4289,4.4313,4.4339,4.4345,4.435,4.437,4.4377,4.4293,4.4293,4.4293,0,4.3985,4.4025,4.4031,4.406,4.4076,4.4073,4.4105,4.412,4.415,4.4161,4.4151,4.4207,4.4222,4.4268,4.428,4.4291,4.4301,4.4286,4.4344,4.4349,4.4354,4.4373,4.438,4.4295,4.4294,4.4294,4.4294,0,4.4043,4.4071,4.4093,4.4123,4.4142,4.4172,4.4183,4.4201,4.4203,4.4213,4.4252,4.427,4.4299,4.431,4.4311,4.4357,4.4351,4.4342,4.4324,4.4362,4.438,4.4387,4.4297,4.4296,4.4296,4.4295,0,0,4.4088,4.4124,4.4132,4.4147,4.4175,4.4196,4.4228,4.4257,4.4274,4.4295,4.4322,4.4361,4.4354,4.437,4.4373,4.4396,4.4438,4.4385,4.4385,4.4395,4.4492,4.4499,4.4507,4.4435,4.4437,4.4438,4.4491,0,4.4132,4.4187,4.4195,4.4244,4.4271,4.4271,4.4298,4.4319,4.433,4.4355,4.4366,4.4394,4.4382,4.4392,4.4414,4.4428,4.4457,4.4424,4.4462,4.4463,4.4457,4.4516,4.4523,4.4572,4.4498,4.4499,4.45,0,4.4189,4.4214,4.4267,4.4293,4.4305,4.433,4.4359,4.4383,4.4407,4.4413,4.4433,4.4435,4.4469,4.4449,4.4497,4.4474,4.4491,4.45,4.4502,4.4506,4.4484,4.4523,4.4588,4.4595,4.4511,4.451,4.4509,0,4.4219,4.4266,4.4304,4.4317,4.4348,4.4366,4.438,4.4403,4.4421,4.4447,4.4459,4.4488,4.4504,4.4528,4.4538,4.4522,4.4586,4.4567,4.4593,4.4593,4.4606,4.4605,4.4675,4.4616,4.4616,4.4615,4.4615,0,4.4267,4.43,4.4319,4.4342,4.4379,4.4389,4.4425,4.4439,4.446,4.4487,4.4488,4.4513,4.4525,4.4552,4.4561,4.46,4.4607,4.4614,4.4616,4.4615,4.4614,4.4625,4.4622,4.4617,4.4617,4.4617,4.4616,0,4.4307,4.432,4.4362,4.439,4.4397,4.4424,4.4448,4.4471,4.4483,4.4517,4.4526,4.4544,4.4577,4.459,4.463,4.4635,4.4682,4.468,4.4674,4.4675,4.4701,4.4699,4.4781,4.4794,4.4725,4.4726,4.4726,0,4.4337,4.4362,4.4393,4.4412,4.4427,4.4456,4.4476,4.4487,4.4507,4.4538,4.4559,4.4592,4.4619,4.4672,4.4689,4.472,4.472,4.4747,4.4725,4.4724,4.4723,4.4721,4.4725,4.4751,4.4752,4.4753,4.4753,0,4.4389,4.4396,4.4423,4.4455,4.4478,4.4503,4.4528,4.4543,4.4558,4.4581,4.4615,4.4637,4.4679,4.4712,4.4745,4.476,4.476,4.476,4.4768,4.4767,4.4763,4.4767,4.4686,4.4758,4.4758,4.4757,4.4757,4.4757,4.4426,4.4449,4.4476,4.4508,4.4528,4.4551,4.4576,4.4592,4.462,4.4656,4.4661,4.4699,4.4725,4.4769,4.4786,4.4816,4.4809,4.482,4.4823,4.4826,4.4829,4.4758,4.4822,4.4822,4.4822,4.4822,4.4822,0,4.448,4.4497,4.4527,4.4562,4.4588,4.4586,4.4614,4.4636,4.4669,4.4693,4.4721,4.4762,4.4796,4.4817,4.4851,4.4871,4.4872,4.488,4.4878,4.4883,4.4832,4.4823,4.4879,4.4879,4.4879,4.4879,4.4879,4.4879,4.4511,4.4551,4.4561,4.4613,4.463,4.4668,4.4684,4.4707,4.4727,4.4773,4.4801,4.4815,4.4839,4.4875,4.4907,4.4912,4.4925,4.4934,4.4939,4.4892,4.4886,4.488,4.4871,4.4936,4.4936,4.4987,4.4987,4.4987]},{"header":{"parameterUnit":"m.s-1","parameterCategory":1,"la1":30.2991,"la2":30.254,"lo1":-89.0895,"lo2":-89.0444,"dy":0.0017,"dx":0.0017,"nx":28,"ny":28,"refTime":"2023-10-13T09:00:00:Z","depth":0,"parameterNumber":3,"parameterNumberName":"V-component_of_WINDS"},"data":[0,0,0,0,0,0,0,0,0,0,0,0,0,0,0,0,0,0,0,0,0,0,0,0,0,0,0,0,0,0,0,0,0,0,0,0,0,0,0,0,0,0,0,0,0,0,0,0,0,0,0,0,0,0,0,0,0,0,-1.9524,-1.9524,0,-1.9504,-1.9504,-1.9504,-1.953,-1.9531,-1.9532,-1.9533,-1.9509,-1.9507,-1.9506,0,0,0,0,0,0,0,0,0,0,0,0,0,-1.9583,-1.9582,-1.9524,-1.9524,-1.9524,-1.9504,-1.9504,-1.9504,-1.953,-1.9531,-1.9532,-1.9534,-1.9509,-1.9507,-1.9506,0,0,0,0,0,0,0,0,0,0,0,0,0,-1.9559,-1.9581,-1.9524,-1.9535,-1.9535,-1.9504,-1.9504,-1.9504,-1.953,-1.9531,-1.9533,-1.9534,-1.951,-1.9508,-1.9505,-1.9462,0,0,-1.9498,-1.9497,0,0,0,0,0,0,0,0,-1.9561,-1.9557,-1.9533,-1.9534,-1.9535,-1.9521,-1.9516,-1.949,-1.953,-1.9532,-1.9533,-1.9535,-1.9511,-1.9509,-1.9502,-1.9461,-1.946,-1.9498,-1.9497,-1.9496,-1.9495,0,0,0,0,0,0,0,-1.9562,-1.9558,-1.9516,-1.9533,-1.9534,-1.954,-1.9538,-1.9511,-1.9514,-1.9532,-1.9534,-1.9531,-1.9512,-1.9504,-1.9502,-1.9459,-1.9498,-1.9496,-1.9495,-1.9494,-1.9384,-1.9383,0,0,0,0,0,0,-1.9563,-1.9559,-1.9517,-1.9516,-1.9552,-1.9537,-1.9535,-1.9524,-1.9514,-1.9514,-1.953,-1.9532,-1.9508,-1.9504,-1.9501,-1.9451,-1.9496,-1.9493,-1.9492,-1.9386,-1.9384,-1.9382,0,0,0,0,0,0,-1.9564,-1.9559,-1.9518,-1.9538,-1.9533,-1.9535,-1.9522,-1.9523,-1.9515,-1.9513,-1.9513,-1.9522,-1.9509,-1.9504,-1.9472,-1.9451,-1.9492,-1.949,-1.9387,-1.9385,-1.9383,-1.9351,0,0,0,0,0,0,-1.9566,-1.9559,-1.9543,-1.9538,-1.9532,-1.949,-1.952,-1.9521,-1.9512,-1.9515,-1.9505,-1.9505,-1.9509,-1.9476,-1.947,-1.9448,-1.9488,-1.9389,-1.9386,-1.9384,-1.9353,-1.9347,-1.9342,0,0,0,0,0,-1.9568,-1.9533,-1.9542,-1.9537,-1.9512,-1.9488,-1.9485,-1.9492,-1.951,-1.9493,-1.9492,-1.9505,-1.9454,-1.9472,-1.9466,-1.9443,-1.9391,-1.9387,-1.9384,-1.9356,-1.9349,-1.9342,0,0,0,0,0,0,-1.9534,-1.9533,-1.9542,-1.9505,-1.9497,-1.9493,-1.9473,-1.9484,-1.9469,-1.9473,-1.9481,-1.9479,-1.9445,-1.9441,-1.9461,-1.9402,-1.9425,-1.942,-1.9406,-1.9399,-1.9393,-1.9395,-1.9487,0,0,0,0,0,-1.9523,-1.9505,-1.9504,-1.9471,-1.9467,-1.9471,-1.946,-1.9467,-1.9458,-1.9454,-1.9451,-1.9441,-1.9423,-1.9411,-1.9394,-1.9353,-1.9352,-1.9335,-1.9329,-1.9324,-1.932,-1.93,-1.9293,-1.9371,-1.9371,-1.9371,0,0,-1.9498,-1.9495,-1.9483,-1.9465,-1.9459,-1.944,-1.9467,-1.9445,-1.9431,-1.945,-1.9421,-1.9418,-1.9408,-1.9372,-1.9356,-1.9367,-1.9299,-1.932,-1.9316,-1.9315,-1.9296,-1.9289,-1.9282,-1.9369,-1.9369,-1.937,0,0,-1.9444,-1.944,-1.9413,-1.9408,-1.94,-1.9403,-1.9397,-1.9392,-1.9391,-1.9362,-1.9377,-1.936,-1.9328,-1.9321,-1.9313,-1.9259,-1.9271,-1.9254,-1.9224,-1.9204,-1.9198,-1.9193,-1.9175,-1.9168,-1.9249,-1.9249,-1.9249,0,-1.9415,-1.9387,-1.9398,-1.9376,-1.9368,-1.9387,-1.936,-1.9354,-1.934,-1.9334,-1.9347,-1.931,-1.9304,-1.9268,-1.9255,-1.9247,-1.9241,-1.9254,-1.9199,-1.9193,-1.9188,-1.9171,-1.9164,-1.9247,-1.9247,-1.9248,-1.9248,0,-1.9352,-1.9333,-1.9312,-1.9301,-1.9291,-1.9266,-1.9273,-1.926,-1.9269,-1.927,-1.9241,-1.9235,-1.9219,-1.9211,-1.9217,-1.9176,-1.9183,-1.9197,-1.9221,-1.9179,-1.9163,-1.9156,-1.9244,-1.9245,-1.9246,-1.9246,0,0,-1.9275,-1.9272,-1.9264,-1.926,-1.9254,-1.9239,-1.9216,-1.9202,-1.9192,-1.9182,-1.9163,-1.9137,-1.9151,-1.9142,-1.9149,-1.9131,-1.9091,-1.9148,-1.9148,-1.9138,-1.9047,-1.9037,-1.9029,-1.9099,-1.9098,-1.9097,-1.9048,0,-1.9222,-1.9184,-1.9193,-1.9155,-1.9138,-1.9157,-1.9137,-1.9131,-1.9133,-1.9118,-1.9119,-1.9102,-1.912,-1.9116,-1.91,-1.91,-1.9073,-1.9103,-1.9082,-1.9081,-1.9084,-1.9021,-1.901,-1.8964,-1.9042,-1.9041,-1.904,0,-1.9155,-1.9145,-1.9106,-1.9105,-1.9098,-1.908,-1.9069,-1.9055,-1.9049,-1.9051,-1.9043,-1.9053,-1.903,-1.9054,-1.9023,-1.9044,-1.9036,-1.9035,-1.9033,-1.9031,-1.9058,-1.9018,-1.8949,-1.8943,-1.903,-1.9031,-1.9032,0,-1.9104,-1.9081,-1.9055,-1.9051,-1.9049,-1.9036,-1.9034,-1.903,-1.9022,-1.9011,-1.9006,-1.8993,-1.8985,-1.8975,-1.8981,-1.8998,-1.895,-1.8974,-1.8951,-1.8951,-1.894,-1.8941,-1.8869,-1.8934,-1.8934,-1.8934,-1.8934,0,-1.9045,-1.902,-1.9033,-1.9017,-1.899,-1.9002,-1.8975,-1.8975,-1.8972,-1.8956,-1.8971,-1.8956,-1.8965,-1.8951,-1.8956,-1.893,-1.8926,-1.8928,-1.8929,-1.8927,-1.8927,-1.8922,-1.8925,-1.8932,-1.8932,-1.8933,-1.8933,0,-1.8983,-1.8991,-1.8964,-1.8966,-1.8965,-1.8946,-1.8946,-1.8932,-1.8935,-1.8915,-1.8911,-1.8916,-1.89,-1.8906,-1.8888,-1.8891,-1.886,-1.8865,-1.8862,-1.8864,-1.8841,-1.8844,-1.8765,-1.8755,-1.8825,-1.8824,-1.8824,0,-1.8945,-1.8927,-1.8927,-1.8919,-1.8917,-1.8902,-1.8895,-1.8906,-1.8897,-1.889,-1.8876,-1.8862,-1.8852,-1.8825,-1.8827,-1.8814,-1.8819,-1.8793,-1.8817,-1.8816,-1.882,-1.8822,-1.882,-1.8788,-1.8787,-1.8786,-1.8786,0,-1.8877,-1.8882,-1.8871,-1.8862,-1.8853,-1.8846,-1.884,-1.8832,-1.8843,-1.8832,-1.8817,-1.8809,-1.8793,-1.8779,-1.8768,-1.8765,-1.8777,-1.8778,-1.8772,-1.877,-1.8769,-1.8771,-1.885,-1.878,-1.878,-1.8781,-1.8781,-1.8781,-1.8827,-1.8813,-1.8811,-1.8799,-1.8796,-1.8791,-1.8778,-1.8781,-1.8769,-1.8758,-1.8765,-1.8748,-1.8744,-1.8731,-1.8727,-1.8713,-1.8723,-1.8715,-1.8713,-1.8711,-1.8708,-1.8772,-1.8711,-1.8711,-1.8711,-1.8711,-1.8712,0,-1.8761,-1.8761,-1.875,-1.8743,-1.8733,-1.8747,-1.8742,-1.8733,-1.8718,-1.8714,-1.8704,-1.8688,-1.8675,-1.8677,-1.8665,-1.8654,-1.8659,-1.8651,-1.8652,-1.8651,-1.8699,-1.8706,-1.8647,-1.8647,-1.8647,-1.8647,-1.8647,-1.8647,-1.8725,-1.8702,-1.8708,-1.8684,-1.8685,-1.867,-1.8666,-1.8661,-1.8659,-1.864,-1.863,-1.8632,-1.8631,-1.8619,-1.8608,-1.8609,-1.8604,-1.8594,-1.8596,-1.8641,-1.8648,-1.8654,-1.866,-1.8592,-1.8592,-1.855,-1.855,-1.8549]}]]